User: anonymous   Login
Location: Caltech
(34.1382°N, 118.1253°W)
Time: 01:31:44
(UTC-07:00)
Language:

Iridium 94 - Orbit

View from above orbital plane
View from above orbital plane
View from above satellite
View from above satellite

Ground track
Ground track

The orbit data is extracted from the following two-line orbital elements,

1 27374U 02005C   14298.12650354  .00000419  00000-0  14267-3 0  7029
2 27374 086.3928 299.5337 0002128 039.2626 028.3311 14.34220701677484
Epoch (UTC): 25 October 2014 03:02:09
Eccentricity: 0.0002128
inclination: 86.3928°
perigee height: 776 km
apogee height: 779 km
right ascension of ascending node: 299.5337°
argument of perigee: 39.2626°
revolutions per day: 14.34220701
mean anomaly at epoch: 28.3311°
orbit number at epoch: 67748

The dashed part of the orbit path shows where the satellite is in the earth's shadow,  

DLR